100LL.CA
Aviation Fuel Pricing for Canadians
Please upgrade your browser - Tested with IE9, FireFox, Chrome, Safari

Fuel Prices Airport Info Airport List METAR / TAF Kneeboard RSS

Reference Airport: Revelstoke, BC
N 50 57 44   W 118 11 04

CYRV Revelstoke, BC
WEATHER
METARCYRV 231500Z AUTO VRB02KT 9SM OVC004 05/05 A3056 RMK SLP367
REF N 50 57 44  W 118 11 04    1.7SSE    16E (2014)
UTC-8(7)    Elev 1457    A5005 LO2 RCAP
OPR Columbia-Shuswap Regional District 250-837-7007
Reg
PFA-1,6 C-2,3,4,5
FLT PLN NOTAM FILE CYKA
FIC Kamloops 866-WXBRIEF (Toll free within Canada) or 866-541-4101 (Toll free within Canada & USA)
WXMETAR AUTO H24 WxCam
SERVICES
FUEL100LL, JA (FSII avbl) (Full/Self-serve, Visa Mastercard, Amex) 250-837-7007
PRICES100LL public: 1.450; current as of 2017-06-03.
OILAll
S1,4,5
RWY DATARwy 12(120)/30(300) 5155x75 asphalt Thld 30 displ 654. R/L
RCROpr Ltd win maint
COMM
RCOPacific rdo 122.375 (FISE) 126.7 (bcst)
ATFtfc 122.8 5NM 4500 ASL
NAV
PRORgt hand circuits Rwy 12 (CAR 602.96).
CAUTIONMigratory birds in vic of aprt fr aprx Aug-Nov.
Effective 0901Z 12 October 2017 to 0901Z 07 December 2017